Regional Weather Roundup
Issued by NWS

Home | Current Version | Previous Version | Graphics & Text | Print | Product List | Glossary On
Versions: 1 2 3 4 5 6 7 8 9 10 11 12 13 14 15 16 17 18 19 20 21 22 23 24 25 26 27 28 29 30 31 32 33 34 35 36 37 38 39 40 41 42 43 44 45 46 47 48 49 50
000
ASUS45 KPSR 240400
RWRAZ

PRELIMINARY ARIZONA REGIONAL HOURLY WEATHER ROUNDUP
NATIONAL WEATHER SERVICE PHOENIX AZ
900 PM MST THU OCT 23 2014

NOTE: FAIR INDICATES FEW OR NO CLOUDS BELOW 12,000 FEET WITH NO
SIGNIFICANT WEATHER AND/OR OBSTRUCTIONS TO VISIBILITY.

AZZ001>003-036-240500-
NORTHWEST ARIZONA

CITY           SKY/WX    TMP DP  RH WIND       PRES   REMARKS
KINGMAN        CLEAR     60  40  47 S10       30.12R
$$

AZZ004>008-015-016-018-240500-
NORTH CENTRAL ARIZONA

CITY           SKY/WX    TMP DP  RH WIND       PRES   REMARKS
GRAND CANYON   PTCLDY    40  27  59 CALM      30.32R
PRESCOTT       CLEAR     56  41  57 S7        30.23R
FLAGSTAFF      PTCLDY    43  33  68 CALM      30.36R
PAGE           PTCLDY    63  33  32 SE3       30.16S
$$

AZZ009>014-017-240500-
NORTHEAST ARIZONA

CITY           SKY/WX    TMP DP  RH WIND       PRES   REMARKS
WINSLOW        NOT AVBL
SAINT JOHNS    PTCLDY    56  41  57 S6        30.26S
WINDOW ROCK    PTCLDY    49  30  48 CALM      30.34R
$$

AZZ023-240500-
GREATER PHOENIX AREA

CITY           SKY/WX    TMP DP  RH WIND       PRES   REMARKS
PHOENIX        PTCLDY    80  50  34 CALM      29.95R
LUKE AFB       CLEAR     72  51  47 N8        29.96R
DEER VALLEY    CLEAR     77  46  33 NE12      29.98R
SCOTTSDALE     CLEAR     78  47  33 N3        29.99S
MESA-GATEWAY   PTCLDY    72  52  49 NE5       30.00R
CHANDLER       CLEAR     77  52  41 CALM      29.97R
$$

AZZ027-028-240500-
SOUTHWEST MARICOPA COUNTY AND PINAL COUNTY

CITY           SKY/WX    TMP DP  RH WIND       PRES   REMARKS
CASA GRANDE    CLEAR     75  46  35 N6        29.98S
GILA BEND      CLEAR     77  49  36 SE3       29.96R
$$

AZZ503-504-507>509-240500-
SOUTHEAST ARIZONA

CITY           SKY/WX    TMP DP  RH WIND       PRES   REMARKS
TUCSON         CLEAR     74  44  34 S5        30.07R
DAVIS-MONTHAN  CLEAR     69  48  47 S5        30.05R
NOGALES        CLEAR     62  45  53 E3        30.13R
SIERRA VISTA   CLEAR     63  45  51 CALM      30.19R
SAFFORD        CLEAR     65  52  62 E6        30.09R
$$

AZZ020-021-025-026-031-240500-
SOUTHWEST ARIZONA

CITY           SKY/WX    TMP DP  RH WIND       PRES   REMARKS
YUMA           NOT AVBL
$$

CAZ031-033-041-043-047-048-061-240500-
SOUTHERN CALIFORNIA

CITY           SKY/WX    TMP DP  RH WIND       PRES   REMARKS
DOWNTOWN L.A.  CLEAR     69  57  65 CALM      29.93R
L.A. AIRPORT   CLEAR     69  66  90 W3        29.93S
SAN DIEGO      CLEAR     72  62  71 CALM      29.95R
BURBANK        CLEAR     71  47  42 CALM      29.95R
ONTARIO        CLEAR     72  48  42 CALM      29.96R
RIVERSIDE      CLEAR     73  49  42 CALM      29.96R
PALM SPRINGS   CLEAR     79  43  27 N6        29.95R
EL CENTRO NAS  PTCLDY    79  48  33 CALM      29.88S
IMPERIAL       CLEAR     77  51  40 CALM      29.88R
BLYTHE         CLEAR     79  44  28 N7        29.91R
$$

NVZ020-UTZ003-240500-
SOUTHERN NEVADA-UTAH

CITY           SKY/WX    TMP DP  RH WIND       PRES   REMARKS
LAS VEGAS      NOT AVBL
SALT LAKE CITY MOCLDY    57  39  51 CALM      30.03F
$$

NMZ009-TXZ055-240500-
NEW MEXICO-WEST TEXAS

CITY           SKY/WX    TMP DP  RH WIND       PRES   REMARKS
ALBUQUERQUE    PTCLDY    62  37  39 E6        30.26R
EL PASO        CLEAR     68  52  56 NE3       30.17R
$$


........................KEY........................
SKY/WX - SKY CONDITION/WEATHER
TMP    - TEMPERATURE IN FAHRENHEIT
DP     - DEW POINT IN FAHRENHEIT
RH     - RELATIVE HUMIDITY IN PERCENT
WIND   - DIRECTION AND SPEED IN MILES PER HOUR (MPH)
VRB    - VARIABLE WIND DIRECTION
PRES   - MEAN SEA LEVEL PRESSURE IN INCHES OF MERCURY
         F - FALLING PRESSURE   R - RISING PRESSURE
         S - STEADY PRESSURE
VSB    - VISIBILITY IN MILES
HX     - HEAT INDEX IN FAHRENHEIT
WCI    - WIND CHILL INDEX IN FAHRENHEIT
TC     - TEMPERATURE IN CELSIUS WHICH IS ALSO KNOWN AS
         TEMPERATURE IN CENTIGRADE
AFB    - AIR FORCE BASE
         LUKE AFB IS LUKE AIR FORCE BASE
         DAVIS-MONTHAN IS DAVIS-MONTHAN AIR FORCE BASE
NAS    - NAVAL AIR STATION
         EL CENTRO NAS IS EL CENTRO NAVAL AIR STATION
N/A    - NOT AVAILABLE



USA.gov is the U.S. government's official web portal to all federal, state and local government web resources and services.